User: anonymous   Login
Location: Caltech
(34.1382°N, 118.1253°W)
Time: 07:05:08
(UTC-08:00)
Language:

Cosmos 1508 Rocket - Orbit

View from above orbital plane
View from above orbital plane
View from above satellite
View from above satellite

Ground track
Ground track

The orbit data is extracted from the following two-line orbital elements,

1 14484U 83111B   14353.92173159  .00063466  00000-0  68425-3 0  7337
2 14484 082.8326 147.6598 0163898 322.1763 200.9443 15.48546596601115
Epoch (UTC): 19 December 2014 22:07:17
Eccentricity: 0.0163898
inclination: 82.8326°
perigee height: 309 km
apogee height: 532 km
right ascension of ascending node: 147.6598°
argument of perigee: 322.1763°
revolutions per day: 15.48546596
mean anomaly at epoch: 200.9443°
orbit number at epoch: 60111

The dashed part of the orbit path shows where the satellite is in the earth's shadow,  

DLR